TimeCDT,TemperatureF,Dew PointF,Humidity,Sea Level PressureIn,VisibilityMPH,Wind Direction,Wind SpeedMPH,Gust SpeedMPH,PrecipitationIn,Events,Conditions,WindDirDegrees,DateUTC
12:53 AM,73.0,66.9,81,29.95,10.0,South,5.8,-,N/A,,Clear,170,2013-06-25 05:53:00
1:53 AM,75.0,68.0,79,29.94,10.0,South,8.1,-,N/A,,Clear,180,2013-06-25 06:53:00
2:53 AM,75.0,69.1,82,29.95,10.0,South,8.1,-,N/A,,Clear,190,2013-06-25 07:53:00
3:53 AM,73.9,69.1,85,29.94,10.0,South,9.2,-,N/A,,Clear,170,2013-06-25 08:53:00
4:53 AM,73.9,69.1,85,29.92,10.0,South,8.1,-,N/A,,Clear,180,2013-06-25 09:53:00
5:53 AM,73.9,69.1,85,29.94,10.0,South,8.1,-,N/A,,Clear,190,2013-06-25 10:53:00
6:53 AM,75.0,69.1,82,29.94,10.0,South,9.2,-,N/A,,Clear,190,2013-06-25 11:53:00
7:53 AM,77.0,70.0,79,29.95,10.0,South,9.2,-,N/A,,Clear,180,2013-06-25 12:53:00
8:53 AM,80.1,70.0,71,29.95,10.0,SSW,15.0,-,N/A,,Clear,200,2013-06-25 13:53:00
9:53 AM,82.9,68.0,60,29.94,10.0,South,17.3,23.0,N/A,,Clear,190,2013-06-25 14:53:00
10:53 AM,84.0,68.0,58,29.95,10.0,SSW,16.1,-,N/A,,Clear,200,2013-06-25 15:53:00
11:53 AM,86.0,66.9,53,29.95,10.0,South,15.0,-,N/A,,Clear,180,2013-06-25 16:53:00
12:53 PM,87.1,66.0,49,29.94,10.0,South,13.8,23.0,N/A,,Clear,180,2013-06-25 17:53:00
1:53 PM,89.1,68.0,50,29.92,10.0,South,18.4,24.2,N/A,,Clear,170,2013-06-25 18:53:00
2:53 PM,84.9,66.9,55,29.90,10.0,South,18.4,-,N/A,,Clear,180,2013-06-25 19:53:00
3:08 PM,84.2,66.2,55,29.92,2.5,South,23.0,28.8,N/A,,Haze,170,2013-06-25 20:08:00
3:12 PM,84.2,66.2,55,29.91,3.0,South,19.6,28.8,N/A,,Haze,170,2013-06-25 20:12:00
3:53 PM,88.0,66.9,49,29.85,10.0,South,20.7,32.2,N/A,,Clear,190,2013-06-25 20:53:00
4:53 PM,87.1,66.0,49,29.86,10.0,South,21.9,27.6,N/A,,Clear,190,2013-06-25 21:53:00
5:53 PM,84.9,64.9,51,29.84,10.0,South,18.4,-,N/A,,Clear,190,2013-06-25 22:53:00
6:53 PM,84.9,66.0,53,29.83,10.0,South,21.9,28.8,N/A,,Clear,190,2013-06-25 23:53:00
7:53 PM,82.0,66.9,60,29.83,10.0,South,12.7,-,N/A,,Clear,180,2013-06-26 00:53:00
8:53 PM,79.0,68.0,69,29.83,10.0,South,10.4,-,N/A,,Partly Cloudy,180,2013-06-26 01:53:00
9:53 PM,78.1,68.0,71,29.84,10.0,South,8.1,-,N/A,,Mostly Cloudy,190,2013-06-26 02:53:00
10:53 PM,75.9,68.0,76,29.86,10.0,South,6.9,-,N/A,,Clear,190,2013-06-26 03:53:00
11:53 PM,75.0,68.0,79,29.85,10.0,South,8.1,-,N/A,,Clear,180,2013-06-26 04:53:00